Location: Angwan Shehu
(11.2514°N, 7.4613°E)
Time: 02:05:50
(UTC+00:00)

Tiros 1 - Pass Details

Date: 30 April 2021
Orbit: 630 x 664 km, 48.4° (Epoch: 06 May)

Event Time Altitude Azimuth Distance (km) Brightness Sun altitude
Rises 02:03:32 0° 209° (SSW) 2,982 - -43.4°
Reaches altitude 10° 02:05:57 10° 204° (SSW) 2,068 - -42.9°
Maximum altitude 02:10:34 50° 129° (SE) 835 - -41.9°
Exits shadow 02:15:00 11° 54° (NE) 1,995 10.3 -41.0°
Drops below altitude 10° 02:15:09 10° 54° (NE) 2,053 10.4 -41.0°
Sets 02:17:32 0° 49° (NE) 2,958 11.4 -40.5°
